Location: Falniów
(50.3639°N, 19.9642°E)
Time: 13:13:15
(UTC+00:00)

Cosmos 2082 Rocket - Pass Details

Date: 27 April 2026
Orbit: 831 x 853 km, 71.0° (Epoch: 19 May)

Event Time Altitude Azimuth Distance (km) Brightness Sun altitude
Exits shadow 21:48:45 33° 99° (E) 1,403 3.1 -24.7°
Drops below altitude 10° 21:53:28 10° 44° (NE) 2,492 5.0 -24.8°
Sets 21:56:08 0° 35° (NE) 3,432 6.0 -24.9°
